Naples, Italy

5:04 AM CEST on October 01, 2016 (GMT +0200)
Capodichino Mil

Weather History for LIRN - May, 2012

Change the Weather History Date:

Wednesday, May 23, 2012

  Actual Average Record
Temperature  
Mean Temperature 60 °F -  
Max Temperature 68 °F 75 °F 91 °F (2006)
Min Temperature 51 °F 57 °F 51 °F (1999)
Degree Days  
Heating Degree Days 6    
Growing Degree Days 10 (Base 50)    
Moisture  
Dew Point 54 °F    
Average Humidity 77    
Maximum Humidity 100    
Minimum Humidity 56    
Precipitation  
Precipitation 0.00 in - - ()
Sea Level Pressure  
Sea Level Pressure 29.89 in    
Wind  
Wind Speed 3 mph ()    
Max Wind Speed 12 mph    
Max Gust Speed -    
Visibility 5.9 miles    
Events Fog , Rain    
Averages and records for this station are not official NWS values.
T = Trace of Precipitation, MM = Missing Value Source: Averaged Metar Reports

Daily Weather History Graph

Daily Weather History Graph

Search for Another Location

Airport or City:

Trip Planner

Search our weather history database for the weather conditions in past years. The results will help you decide how hot, cold, wet, or windy it might be!

Date:

Astronomy

May. 23, 2012 Rise Set
Actual Time 5:38 AM CEST 8:21 PM CEST
Civil Twilight 5:06 AM CEST 8:53 PM CEST
Nautical Twilight 4:26 AM CEST 9:33 PM CEST
Astronomical Twilight 3:40 AM CEST 10:19 PM CEST
Moon 7:25 AM CEST (5/23) 10:30 PM CEST (5/23)
Length of Visible Light 15h 46m
Length of Day
14h 42m
Waxing Crescent, 5% of the Moon is Illuminated
May 23
Waxing Crescent
May 28
First Quarter
Jun 4
Full
Jun 11
Last Quarter
Jun 19
New

Hourly Weather History & Observations

Time (CEST) Temp. Dew Point Humidity Pressure Visibility Wind Dir Wind Speed Gust Speed Precip Events Conditions
12:20 AM 57.2 °F 55.4 °F 94% 29.86 in 4.3 mi Calm Calm - N/A Rain Light Rain
12:50 AM 57.2 °F 55.4 °F 94% 29.86 in 5.0 mi Calm Calm - N/A   Scattered Clouds
1:20 AM 55.4 °F 53.6 °F 94% 29.86 in 5.0 mi West 1.2 mph - N/A Fog Fog
1:50 AM 55.4 °F 53.6 °F 94% 29.86 in 4.3 mi Calm Calm - N/A Fog Fog
2:20 AM 55.4 °F 53.6 °F 94% 29.86 in 6.2 mi Calm Calm - N/A Fog Shallow Fog
2:50 AM 55.4 °F 51.8 °F 88% 29.86 in 6.2 mi Variable 1.2 mph - N/A Fog Shallow Fog
3:20 AM 53.6 °F 51.8 °F 94% 29.83 in 6.2 mi Calm Calm - N/A Fog Shallow Fog
3:50 AM 53.6 °F 51.8 °F 94% 29.86 in 6.2 mi Calm Calm - N/A Fog Shallow Fog
4:20 AM 55.4 °F 53.6 °F 94% 29.86 in 6.2 mi Variable 1.2 mph - N/A Fog Shallow Fog
4:50 AM 55.4 °F 53.6 °F 94% 29.86 in 4.3 mi NE 2.3 mph - N/A Fog Patches of Fog
5:20 AM 53.6 °F 51.8 °F 94% 29.86 in 4.3 mi NE 3.5 mph - N/A Fog Patches of Fog
5:50 AM 51.8 °F 51.8 °F 100% 29.86 in 5.0 mi North 2.3 mph - N/A Fog Fog
6:20 AM 55.4 °F 53.6 °F 94% 29.86 in 5.0 mi North 3.5 mph - N/A   Scattered Clouds
6:50 AM 55.4 °F 53.6 °F 94% 29.86 in 6.2 mi NNE 3.5 mph - N/A   Scattered Clouds
7:20 AM 57.2 °F 55.4 °F 94% 29.89 in 6.2 mi Variable 2.3 mph - N/A   Partly Cloudy
7:50 AM 59.0 °F 55.4 °F 88% 29.89 in - Variable 2.3 mph - N/A   Clear
8:20 AM 60.8 °F 55.4 °F 82% 29.89 in 6.2 mi NE 4.6 mph - N/A   Partly Cloudy
8:50 AM 60.8 °F 55.4 °F 82% 29.89 in 6.2 mi Variable 2.3 mph - N/A   Partly Cloudy
9:20 AM 62.6 °F 55.4 °F 77% 29.89 in 6.2 mi NNE 3.5 mph - N/A   Scattered Clouds
9:50 AM 64.4 °F 55.4 °F 73% 29.89 in 6.2 mi ENE 3.5 mph - N/A   Scattered Clouds
10:20 AM 64.4 °F 53.6 °F 68% 29.89 in 6.2 mi North 3.5 mph - N/A   Partly Cloudy
10:50 AM 64.4 °F 51.8 °F 64% 29.89 in 6.2 mi Variable 2.3 mph - N/A   Partly Cloudy
11:20 AM 66.2 °F 51.8 °F 60% 29.89 in 6.2 mi Variable 3.5 mph - N/A   Scattered Clouds
11:50 AM 66.2 °F 53.6 °F 64% 29.89 in 6.2 mi WSW 4.6 mph - N/A   Scattered Clouds
12:20 PM 68.0 °F 53.6 °F 60% 29.89 in 6.2 mi South 8.1 mph - N/A   Scattered Clouds
12:50 PM 66.2 °F 55.4 °F 68% 29.89 in 6.2 mi South 10.4 mph - N/A   Scattered Clouds
1:20 PM 68.0 °F 55.4 °F 64% 29.89 in 6.2 mi South 9.2 mph - N/A   Scattered Clouds
1:50 PM 68.0 °F 55.4 °F 64% 29.89 in 6.2 mi South 11.5 mph - N/A   Scattered Clouds
2:20 PM 66.2 °F 53.6 °F 64% 29.89 in 6.2 mi SSW 8.1 mph - N/A   Scattered Clouds
2:50 PM 68.0 °F 57.2 °F 68% 29.89 in 6.2 mi WSW 9.2 mph - N/A   Scattered Clouds
3:20 PM 66.2 °F 57.2 °F 73% 29.89 in 6.2 mi WSW 10.4 mph - N/A   Mostly Cloudy
3:50 PM 68.0 °F 53.6 °F 60% 29.89 in 6.2 mi West 9.2 mph - N/A   Mostly Cloudy
4:20 PM 68.0 °F 53.6 °F 60% 29.89 in 6.2 mi West 11.5 mph - N/A   Scattered Clouds
4:50 PM 68.0 °F 51.8 °F 56% 29.89 in 6.2 mi WNW 9.2 mph - N/A   Scattered Clouds
5:20 PM 68.0 °F 53.6 °F 60% 29.89 in 6.2 mi NW 9.2 mph - N/A Rain Light Rain
5:50 PM 66.2 °F 51.8 °F 60% 29.92 in 6.2 mi WNW 10.4 mph - N/A   Mostly Cloudy
6:20 PM 66.2 °F 53.6 °F 64% 29.92 in 6.2 mi Variable 8.1 mph - N/A   Mostly Cloudy
6:50 PM 66.2 °F 55.4 °F 68% 29.92 in 6.2 mi NW 4.6 mph - N/A Rain Light Rain
7:20 PM 64.4 °F 55.4 °F 73% 29.92 in 6.2 mi West 3.5 mph - N/A Rain Light Rain
7:50 PM 64.4 °F 53.6 °F 68% 29.92 in 6.2 mi West 3.5 mph - N/A   Mostly Cloudy
8:20 PM 64.4 °F 51.8 °F 64% 29.95 in 6.2 mi NW 5.8 mph - N/A   Mostly Cloudy
8:50 PM 64.4 °F 53.6 °F 68% 29.95 in 6.2 mi Variable 2.3 mph - N/A   Mostly Cloudy
9:20 PM 64.4 °F 53.6 °F 68% 29.95 in 6.2 mi Variable 2.3 mph - N/A   Mostly Cloudy
9:50 PM 64.4 °F 53.6 °F 68% 29.95 in 6.2 mi West 2.3 mph - N/A   Mostly Cloudy
10:20 PM 64.4 °F 57.2 °F 77% 29.95 in 6.2 mi Variable 2.3 mph - N/A   Mostly Cloudy
10:50 PM 64.4 °F 57.2 °F 77% 29.95 in 6.2 mi Variable 2.3 mph - N/A   Mostly Cloudy
11:50 PM 62.6 °F 57.2 °F 82% 29.95 in 6.2 mi Variable 1.2 mph - N/A   Mostly Cloudy